sat.trackr.live / text

‹ back to catalog

UNKNOWN

NORAD 82617

UNKNOWN UNKNOWN UNKNOWN

§ Identity

Operator
Country
Launch date
Launch site
Launch vehicle
Mass (kg)
RCS (m²)

External: N2YO · Heavens-Above

§ Orbital elements

Epoch: 2026-05-22T03:01:00.702912Z

Period
99.34 min
Inclination
74.0266°
Eccentricity
0.0038699
Mean motion
14.49629831 rev/d
Perigee alt
699.4 km
Apogee alt
754.4 km
Semi-major
7,105.0 km
B*
1.0586e-4
RAAN
302.5293°
Arg perigee
207.4130°
Mean anomaly
152.4989°
Rev number
66,006

§ Raw data

UNKNOWN1 82617U          26142.12570258  .00000382  00000+0  10586-3 0  99942 82617  74.0266 302.5293 0038699 207.4130 152.4989 14.49629831660060

JSON: /api/v1/satellites/82617 · /tle

For live sub-satellite position, see the globe view (requires WebGL).

§ Visibility from observer

Set your observer location to see the next 7 days of passes ≥ 10°. The values pass through the URL so the page stays shareable.

No JS? Fill the form by hand. The geolocation button needs JavaScript.